Location: Étang Rond
(42.7927°N, 1.0661°E)
Time: 22:09:25
(UTC+00:00)

Cosmos 2322 - Pass Details

Date: 08 November 2025
Orbit: 841 x 852 km, 71.0° (Epoch: 12 December)

Event Time Altitude Azimuth Distance (km) Brightness Sun altitude
Exits shadow 04:49:45 29° 233° (SW) 1,506 4.6 -20.2°
Maximum altitude 04:52:30 56° 298° (WNW) 1,007 3.7 -19.7°
Drops below altitude 10° 04:58:04 10° 17° (NNE) 2,473 6.3 -18.7°
Sets 05:00:35 0° 22° (NNE) 3,410 7.1 -18.3°
